• Join FlightAware (Why Join?)
  • Login
  • US Flag 
07:39AM EST


 

Airport Tracker/Info


-or-


 

Live Flight TrackerFlight Track Log ✈ EJA930 ✈ 04-Jul-2013 ✈ KAPF - KCMH

Flight Track Log - Related Links

Times and Time Zones

All times are in EDT time to prevent confusion due to time zone crossing. See the EJA930 flight status page for this flight to view local times or setup timezone preferences in your user account.

Time Position Orientation Groundspeed Altitude Reporting Facility
EDT Latitude Longitude Course Direction KTS MPH feet Rate Location/Type
12:08PM 26.1325 -81.6142 343° North 241 277 4,000  Level Miami Center
12:09PM 26.2086 -81.5872 18° North 228 262 5,400 2,300 Climbing Miami Center
12:10PM 26.2878 -81.5928 356° North 267 307 8,600 2,700 Climbing Miami Center
12:11PM 26.3728 -81.6122 348° North 288 331 10,800 1,700 Climbing Miami Center
12:12PM 26.4744 -81.6325 350° North 337 388 12,000 1,350 Climbing Miami Center
12:13PM 26.9594 -81.7391 North  Level FlightAware Approximate
12:13PM 26.5717 -81.6550 348° North 375 432 13,500  Level Miami Center
12:14PM 27.0896 -81.7632 343° North  Level FlightAware Approximate
12:14PM 26.6817 -81.6758 350° North 389 448 15,200  Level Miami Center
12:15PM 26.7917 -81.6989 349° North 394 453 17,100 1,500 Climbing Miami Center
12:16PM 26.9042 -81.7061 357° North 394 453 18,200 1,400 Climbing Miami Center
12:17PM 27.0283 -81.6717 14° North 405 466 19,900 1,400 Climbing Miami Center
12:18PM 27.1397 -81.6481 11° North 411 473 21,000 1,200 Climbing Miami Center
12:19PM 27.2467 -81.6339 North 423 487 22,300 1,400 Climbing Miami Center
12:20PM 27.3683 -81.6203 North 429 494 23,800 1,600 Climbing Miami Center
12:21PM 27.5025 -81.6025 North 429 494 25,500 1,500 Climbing Miami Center
12:22PM 27.6239 -81.5886 North 434 499 26,800 1,200 Climbing Miami Center
12:23PM 27.7453 -81.5750 North 434 499 27,900 1,050 Climbing Miami Center
12:24PM 27.8586 -81.5608 North 440 506 28,900 1,000 Climbing Miami Center
12:25PM 27.9842 -81.5472 North 445 512 29,900 1,000 Climbing Miami Center
12:26PM 28.1100 -81.5314 North 450 518 30,900 1,250 Climbing Miami Center
12:27PM 28.2375 -81.5178 North 456 525 32,400 1,650 Climbing Miami Center
12:28PM 28.3653 -81.5019 North 456 525 34,200 2,050 Climbing Miami Center
12:29PM 28.4869 -81.4881 North 451 519 36,500 1,950 Climbing Miami Center
12:30PM 28.6061 -81.4742 North 440 506 38,100 1,500 Climbing Miami Center
12:31PM 28.7297 -81.4578 North 440 506 39,500 1,328 Climbing Miami Center
12:33PM 28.8806 -81.4508 North 451 519 41,000 687 Climbing Jacksonville Center
12:34PM 29.0000 -81.4872 345° North 438 504 41,000  Level Jacksonville Center
12:35PM 29.1297 -81.5281 345° North 452 520 41,000 50 Level Jacksonville Center
12:36PM 29.2661 -81.5786 342° North 464 534 41,100 50 Climbing Jacksonville Center
12:37PM 29.3939 -81.6222 343° North 470 541 41,100  Level Jacksonville Center
12:38PM 29.5256 -81.6561 347° North 475 547 41,100  Level Jacksonville Center
12:39PM 29.6636 -81.6761 353° North 481 554 41,100  Level Jacksonville Center
12:40PM 29.7994 -81.6886 355° North 487 560 41,100  Level Jacksonville Center
12:41PM 29.9375 -81.7061 354° North 492 566 41,100  Level Jacksonville Center
12:42PM 30.0733 -81.7189 355° North 492 566 41,100 -50 Level Jacksonville Center
12:43PM 30.1964 -81.7317 355° North 492 566 41,000 -50 Descending Jacksonville Center
12:44PM 30.3322 -81.7469 354° North 492 566 41,000 250 Level Jacksonville Center
12:45PM 30.4661 -81.7622 354° North 485 558 41,500 700 Climbing Jacksonville Center
12:46PM 30.6000 -81.7825 353° North 479 551 42,400 750 Climbing Jacksonville Center
12:47PM 30.7294 -81.7978 354° North 479 551 43,000 300 Climbing Jacksonville Center
12:48PM 30.8592 -81.8156 353° North 479 551 43,000 50 Level Jacksonville Center
12:49PM 30.9950 -81.8311 354° North 479 551 43,100 450 Climbing Jacksonville Center
12:50PM 31.1267 -81.8467 354° North 484 557 43,900 850 Climbing Jacksonville Center
12:51PM 31.2583 -81.8644 353° North 479 551 44,800 550 Climbing Jacksonville Center
12:52PM 31.3983 -81.8775 355° North 474 545 45,000 150 Climbing Jacksonville Center
12:53PM 31.5319 -81.8933 354° North 470 541 45,100  Climbing Jacksonville Center
12:55PM 31.8078 -81.9275 354° North 507 583 45,000 -33 Descending Atlanta Center
12:56PM 31.9439 -81.9439 354° North 496 571 45,000  Level Atlanta Center
12:57PM 32.0797 -81.9603 354° North 491 565 45,000  Level Atlanta Center
12:58PM 32.2156 -81.9767 354° North 491 565 45,000  Level Atlanta Center
12:59PM 32.3369 -81.9911 354° North 485 558 45,000  Level Atlanta Center
01:00PM 32.4728 -82.0075 354° North 485 558 45,000 50 Level Atlanta Center
01:01PM 32.6131 -82.0217 355° North 490 564 45,100  Climbing Atlanta Center
01:02PM 32.7503 -81.9964 North 490 564 45,000 -50 Descending Atlanta Center
01:03PM 32.8853 -81.9536 15° North 496 571 45,000  Level Atlanta Center
01:04PM 33.0222 -81.9131 14° North 502 578 45,000  Level Atlanta Center
01:05PM 33.1719 -81.8672 14° North 507 583 45,000  Level Atlanta Center
01:06PM 33.2986 -81.8342 12° North 498 573 45,000  Level Atlanta Center
01:07PM 33.4439 -81.7858 16° North 503 579 45,000  Level Atlanta Center
01:08PM 33.5808 -81.7447 14° North 508 585 45,000  Level Atlanta Center
01:09PM 33.7206 -81.7361 North 508 585 45,000  Level Atlanta Center
01:10PM 33.8625 -81.7347 360° North 498 573 45,000  Level Atlanta Center
01:11PM 33.9981 -81.7386 359° North 498 573 45,000  Level Atlanta Center
01:12PM 34.1422 -81.7397 360° North 498 573 45,000  Level Atlanta Center
01:13PM 34.2819 -81.7383 360° North 498 573 45,000  Level Atlanta Center
01:14PM 34.4219 -81.7422 359° North 498 573 45,000  Level Atlanta Center
01:15PM 34.5514 -81.7436 359° North 503 579 45,000  Level Atlanta Center
01:16PM 34.6933 -81.7475 359° North 503 579 45,000  Level Atlanta Center
01:17PM 34.8353 -81.7486 360° North 503 579 45,000  Level Atlanta Center
01:18PM 34.9769 -81.7472 360° North 508 585 45,000  Level Atlanta Center
01:19PM 35.1317 -81.7531 358° North 508 585 45,000  Level Atlanta Center
01:20PM 35.2756 -81.7542 360° North 508 585 45,000  Level Atlanta Center
01:21PM 35.4194 -81.7553 360° North 514 592 45,000  Level Atlanta Center
01:22PM 35.5636 -81.7564 360° North 514 592 45,000  Level Atlanta Center
01:23PM 35.7075 -81.7575 360° North 514 592 45,000  Level Atlanta Center
01:24PM 35.8514 -81.7561 360° North 514 592 45,000  Level Atlanta Center
01:25PM 35.9808 -81.7550 360° North 514 592 45,000  Level Atlanta Center
01:26PM 36.1267 -81.7586 359° North 509 586 45,000  Level Atlanta Center
01:27PM 36.2686 -81.7572 360° North 514 592 45,000  Level Atlanta Center
01:28PM 36.4144 -81.7581 360° North 514 592 45,000 -488 Level Atlanta Center
01:30PM 36.7911 -81.7578 360° North 521 600 43,300 -743 Descending Indianapolis Center
01:31PM 36.9358 -81.7581 360° North 520 598 42,400 -934 Descending Indianapolis Center
01:32PM 37.0789 -81.7600 359° North 515 593 41,400 -1,073 Descending Indianapolis Center
01:33PM 37.2206 -81.7611 360° North 510 587 40,200 -1,415 Descending Indianapolis Center
01:34PM 37.3661 -81.7625 360° North 516 594 38,500 -1,574 Descending Indianapolis Center
01:35PM 37.5133 -81.7633 360° North 528 608 37,000 -1,770 Descending Indianapolis Center
01:36PM 37.6664 -81.7644 360° North 541 623 34,900 -2,066 Descending Indianapolis Center
01:37PM 37.8183 -81.7664 359° North 546 628 32,800 -2,098 Descending Indianapolis Center
01:38PM 37.9794 -81.7661 360° North 553 636 30,600 -1,366 Descending Indianapolis Center
01:39PM 38.1336 -81.7686 359° North 553 636 30,000 -295 Descending Indianapolis Center
01:40PM 38.2872 -81.7933 353° North 554 638 30,000 -934 Level Indianapolis Center
01:41PM 38.4369 -81.8417 346° North 550 633 28,100 -2,311 Descending Indianapolis Center
01:42PM 38.5883 -81.8914 346° North 553 636 25,300 -2,488 Descending Indianapolis Center
01:43PM 38.7289 -81.9450 343° North 517 595 23,000 -1,512 Descending Indianapolis Center
01:44PM 38.8544 -82.0072 339° North 481 554 22,200 -1,328 Descending Indianapolis Center
01:45PM 38.9822 -82.0675 340° North 485 558 20,300 -1,918 Descending Indianapolis Center
01:46PM 39.1122 -82.1292 340° North 494 568 18,300 -2,098 Descending Indianapolis Center
01:47PM 39.2619 -82.1994 340° North 478 550 16,000 -1,959 Descending Indianapolis Center
01:48PM 39.3250 -82.2350 336° Northwest 452 520 15,100 -1,748 Descending Indianapolis Center
01:49PM 39.4600 -82.2983 340° North 444 511 13,000 -1,934 Descending Indianapolis Center
01:50PM 39.5689 -82.3500 340° North 451 519 11,200 -1,200 Descending Indianapolis Center
01:51PM 39.6569 -82.3958 338° Northwest 305 351 10,700 -1,559 Descending Indianapolis Center
01:52PM 39.7431 -82.4417 338° Northwest 294 338 7,900 -2,436 Descending Indianapolis Center
01:53PM 39.8269 -82.4897 336° Northwest 291 335 5,300 -1,918 Descending Indianapolis Center
01:54PM 39.8908 -82.5269 336° Northwest 273 314 4,000 -678 Descending Indianapolis Center
01:55PM 39.9411 -82.5728 325° Northwest 212 244 4,000 -50 Level Indianapolis Center
01:56PM 39.9797 -82.6333 310° West 214 246 3,900 -469 Descending Indianapolis Center
01:57PM 39.9914 -82.7117 281° West 204 235 3,000 -699 Descending Indianapolis Center
01:58PM 39.9936 -82.7531 274° West 192 221 2,700 -684 Descending Indianapolis Center
01:59PM 39.9958 -82.7872 275° West 178 205 2,100 -835 Descending Indianapolis Center
01:59PM 39.9981 -82.8192 275° West 130 150 1,600 -680 Descending Indianapolis Center
02:00PM 40.0017 -82.8689 275° West 130 150 1,000 -590 Descending Indianapolis Center
02:03PM 39.9833 -82.8833 287° West  Level FlightAware Approximate